#timestamp,LO_Frequency,Hit,StdDev 
1458201615.7,286047003.1,N
1458201635.5,286047005.0,N
1458201655.4,286047003.3,N
1458201675.2,286047007.5,Y
1458201695.0,286047003.2,P
1458201695.9,286047003.2,P
1458201715.8,286047008.6,P
1458201735.6,286047007.0,Y
1458201755.4,286047002.6,P
1458201775.3,286046999.1,N
1458201795.1,286046999.4,N
1458201815.8,286046998.4,N
1458201835.7,286046998.3,N
1458201855.5,286047000.2,N
1458201875.3,286047003.3,N
1458201895.2,286047002.2,N
1458201915.9,286047002.4,N
1458201935.7,286046996.5,N
1458201955.6,286046998.2,N
1458201975.4,286046998.1,N
1458201995.2,286047001.5,N
1458202015.0,286046999.8,N
1458202016.0,286046999.8,N
1458202035.8,286047000.3,N
1458202055.6,286047003.5,N
1458202075.4,286047002.3,N
1458202095.3,286046999.9,N
1458202115.1,286047001.7,N
1458202135.8,286047001.6,N
1458202155.7,286047003.0,N
1458202175.5,286047006.3,Y
1458202195.3,286047006.6,P
1458202215.2,286047007.6,N
1458202235.9,286047005.7,N
1458202255.7,286047006.7,N
1458202275.6,286047009.0,Y
1458202295.4,286047002.2,P
1458202315.2,286047007.1,P
1458202335.1,286047005.1,N
1458202336.0,286047005.1,N
1458202355.8,286047003.0,N
1458202375.6,286047009.1,Y
1458202395.5,286047001.4,P
1458202415.3,286047002.4,N
1458202435.1,286047000.0,N
1458202455.9,286047002.8,N
1458202475.7,286046999.1,N
1458202495.5,286046999.2,N
1458202515.4,286046998.6,N
1458202535.2,286047000.6,N
1458202555.0,286047003.9,N
1458202555.9,286047003.9,N
1458202575.7,286047002.9,N
1458202595.6,286047003.6,N
1458202615.4,286047003.0,N
1458202635.2,286047003.4,N
1458202655.1,286047004.1,N
1458202656.0,286047004.1,N
1458202675.8,286047001.6,N
1458202695.6,286047003.8,N
1458202715.5,286046999.8,N
1458202735.3,286046998.9,N
1458202755.1,286046999.5,N
1458202775.9,286046998.9,N
1458202795.7,286046998.2,N
1458202815.5,286047001.5,N
1458202835.4,286046998.2,N
1458202855.2,286046999.9,N
1458202875.0,286047002.3,N
1458202875.9,286047002.3,N
1458202895.7,286046999.9,N
1458202915.6,286047001.8,N
1458202935.4,286047003.7,N
1458202955.2,286047003.4,N
1458202975.1,286047002.1,N
1458202976.0,286047002.1,N
1458202995.8,286047001.4,N
1458203015.6,286047001.6,N
1458203035.5,286047001.4,N
1458203055.3,286046999.8,N
1458203075.1,286047002.9,N
1458203095.9,286047006.0,Y
1458203115.7,286047002.6,P
1458203135.5,286047004.0,P
1458203155.4,286047003.8,P
1458203175.2,286047007.5,Y
1458203195.0,286047002.6,P
1458203195.9,286047002.6,P
1458203215.8,286047005.0,P
1458203235.6,286047001.7,N
1458203255.4,286047001.6,N
1458203275.3,286047000.7,N
1458203295.1,286046994.9,Y
1458203296.0,286046994.9,P
1458203315.8,286046994.4,N
1458203335.7,286046994.7,N
1458203355.5,286046994.4,N
1458203375.3,286046995.4,N
1458203395.2,286046994.8,N
1458203415.9,286046992.3,N
1458203435.7,286046989.4,Y
1458203455.6,286046997.1,P
1458203475.4,286046996.5,P
1458203495.2,286046995.0,P
1458203515.0,286046997.7,N
1458203516.0,286046997.7,N
1458203535.8,286046996.8,Y
1458203555.6,286046999.2,P
1458203575.5,286047000.2,N
1458203595.3,286046999.3,N
1458203615.1,286047000.2,N
1458203635.8,286047000.8,N
1458203655.7,286047001.2,N
1458203675.5,286046998.7,N
1458203695.3,286047000.7,N
1458203715.2,286047003.1,N
1458203735.9,286047003.6,N
1458203755.7,286047005.3,N
1458203775.6,286047000.7,N
1458203795.4,286046998.2,N
1458203815.2,286046999.6,N
1458203835.1,286046997.8,N
1458203836.0,286046997.8,N
1458203855.8,286046999.6,N
1458203875.6,286047000.3,N
1458203895.5,286046997.1,N
1458203915.3,286046998.9,N
1458203935.1,286046998.9,N
1458203955.9,286047002.1,N
1458203975.7,286047003.8,N
1458203995.5,286047002.8,N
1458204015.3,286047001.1,N
1458204035.2,286046998.8,N
1458204055.0,286046995.3,N
1458204055.9,286046995.3,N
1458204075.7,286046997.4,N
1458204095.6,286046996.6,N
1458204115.4,286046998.7,N
1458204135.2,286046996.2,N
1458204155.1,286046993.6,N
1458204156.0,286046993.6,N
1458204175.8,286046999.2,N
1458204195.6,286046994.3,N
1458204215.5,286046990.8,Y
1458204235.3,286046995.5,P
1458204255.1,286046991.4,P
1458204275.9,286046991.4,N
1458204295.7,286046991.8,N
1458204315.5,286046992.7,N
1458204335.4,286046992.6,N
1458204355.2,286046994.4,N
1458204375.0,286046995.2,N
1458204375.9,286046995.2,N
1458204395.8,286046995.1,N
1458204415.6,286046991.8,Y
1458204435.4,286047002.1,P
1458204455.3,286047004.0,N
1458204475.1,286047001.4,N
1458204476.0,286047001.4,N
1458204495.8,286047000.7,N
1458204515.6,286046998.7,N
1458204535.5,286046998.9,N
1458204555.3,286046998.5,N
1458204575.1,286046999.2,N
1458204595.9,286046996.1,N
1458204615.7,286046993.7,N
1458204635.5,286046996.7,N
1458204655.4,286046994.9,N
1458204675.2,286046994.8,N
1458204695.0,286046992.2,N
1458204695.9,286046992.2,N
1458204715.8,286046997.9,N
1458204735.6,286046999.3,N
1458204755.4,286046999.3,N
1458204775.3,286046994.9,N
1458204795.1,286046998.6,N
1458204796.0,286046998.6,N
1458204815.8,286046999.4,N
1458204835.7,286047000.2,N
1458204855.5,286047001.3,N
1458204875.3,286047003.5,N
1458204895.1,286047007.4,N
1458204915.9,286047004.1,N
1458204935.7,286047004.4,N
1458204955.5,286047004.8,N
1458204975.4,286047006.0,N
1458204995.2,286047004.2,N
1458205015.0,286047001.8,N
1458205015.9,286047001.8,N
1458205035.8,286047003.6,N
1458205055.6,286047005.2,N
1458205075.4,286047005.9,N
1458205095.3,286047004.4,N
1458205115.1,286047000.6,N
1458205116.0,286047000.6,N
1458205135.8,286046999.7,N
1458205155.7,286047007.4,N
1458205175.5,286047009.1,N
1458205195.3,286047007.3,N
